Tracking 31023 objects as of 20-Jul-2025
HD Live streaming from Space Station
objects crossing your sky now

STARLINK-2645

Track STARLINK-2645 now!
10-day predictions
STARLINK-2645 is classified as:


NORAD ID: 48444
Int'l Code: 2021-040S
Perigee: 553.4 km
Apogee: 555.3 km
Inclination: 53.1 °
Period: 95.6 minutes
Semi major axis: 6925 km
RCS: Unknown
Launch date: May 9, 2021
Source: United States (US)
Launch site: AIR FORCE EASTERN TEST RANGE (AFETR)
Your satellite tracking list
Your tracking list is empty




NASA's NSSDC Master Catalog

Two Line Element Set (TLE):
1 48444U 21040S   25200.59002225 -.00000994  00000-0 -47822-4 0  9996
2 48444  53.0545 148.0399 0001392  98.4605 261.6541 15.06396620231491
Source of the keplerian elements: AFSPC